Regional Weather Roundup
Issued by NWS San Diego, CA

Home | Current Version | Previous Version | Text Only | Print | Product List | Glossary On
Versions: 1 2 3 4 5 6 7 8 9 10 11 12 13 14 15 16 17 18 19 20 21 22 23 24 25 26 27 28
000
ASUS46 KSGX 191411
RWRSGX

SAN DIEGO HOURLY WEATHER ROUNDUP
NATIONAL WEATHER SERVICE SAN DIEGO CA
600 AM PST FRI JAN 19 2018

NOTE: "FAIR" INDICATES FEW OR NO CLOUDS BELOW 12,000 FEET WITH NO
SIGNIFICANT WEATHER AND/OR OBSTRUCTIONS TO VISIBILITY.

CAZ042-043-060-061-PZZ750-775-191500-

GREATER SAN DIEGO AREA

CITY           SKY/WX    TMP DP  RH WIND       PRES   REMARKS
SAN DIEGO AP   PTCLDY    58  53  84 E6        30.03F
NATIONAL CITY    N/A     57  54  91 E2        30.04F
IMPERIAL BEACH PTCLDY    56  52  86 E7        30.02F FOG
BROWN FIELD    CLOUDY    54  52  93 SE3       30.02F FOG
MIRAMAR MCAS   MOCLDY    57  52  83 E7        30.02F FOG
MONTGOMERY FLD PTCLDY    58  52  80 E5        30.02F HAZE
GILLESPIE FLD  CLOUDY    55  52  88 SE5       30.02F FOG

$$

NORTH SAN DIEGO COUNTY

CITY           SKY/WX    TMP DP  RH WIND       PRES   REMARKS
CAMP PENDLETON CLOUDY    53  51  93 E3        30.02S
OCEANSIDE AP   MOCLDY    50  48  93 CALM      30.02R FOG
OCEANSIDE HBR    N/A     54  52  92 NE1       30.05R
CARLSBAD       CLEAR     55  52  89 E5        30.01S FOG
DEL MAR          N/A     55  53  92 CALM      30.04S
LA JOLLA SCRIP   N/A     56  54  93 E6        30.02S
ESCONDIDO        N/A     54  51  89 E1        30.03F
SAN MARCOS       N/A     53  50  88 CALM      30.04F
POWAY            N/A     53  49  88 CALM      30.04F

$$

EAST SAN DIEGO COUNTY

CITY           SKY/WX    TMP DP  RH WIND       PRES   REMARKS
RAMONA         FOG       47  47 100 E5        30.03S VSB 1/4
SANTEE LAKES     N/A     54  52  93 CALM      30.02F
LA MESA          N/A     54  51  91 CALM      29.96F
JAMUL            N/A     49  47  93 CALM      30.02F
CAMPO            N/A     39  34  82 NE6       30.00S WCI  35

$$

ORANGE COUNTY AND THE LOS ANGELES BASIN

CITY           SKY/WX    TMP DP  RH WIND       PRES   REMARKS
JOHN WAYNE AP  CLOUDY    57  54  89 E3        30.01S
LAGUNA BEACH     N/A     50  49  95 CALM      29.96S
LAKE FOREST FR   N/A     53  46  77 CALM      29.90R
HUNTINGTON BCH   N/A     58  56  94 SW2       30.02R
LOS ALAMITOS   CLOUDY    56  55  98 CALM      30.01R
FULLERTON      CLOUDY    57  54  89 E3        30.01R
LONG BEACH     CLOUDY    59  57  93 E3        30.01R FOG
L.A. AP        CLOUDY    57  57 100 CALM      30.01R
L.A. DOWNTOWN  CLOUDY    59  55  87 CALM      30.00S FOG

$$

THE INLAND EMPIRE

CITY           SKY/WX    TMP DP  RH WIND       PRES   REMARKS
CORONA         CLEAR     43  42  97 CALM      30.02S FOG
CHINO          FOG       47  45  93 NW6       30.03R VSB 3/4
ONTARIO        PTCLDY    52  48  86 CALM      30.00S FOG
SAN BERNARDINO FAIR      49  42  75 E3        30.01F
RIVERSIDE AP   CLEAR     50  46  86 NE6       30.01S
MARCH ARB      CLEAR     46  46 100 S6        30.01F
FRENCH VALLEY  CLOUDY    45  45 100 CALM      30.03S VSB<1/4

$$

SAN BERNARDINO AND RIVERSIDE COUNTY MOUNTAINS

CITY           SKY/WX    TMP DP  RH WIND       PRES   REMARKS
BIG BEAR AP    CLEAR     32  28  86 CALM      30.06F

$$

SOUTHERN DESERT INCLUDING THE COACHELLA VALLEY

CITY           SKY/WX    TMP DP  RH WIND       PRES   REMARKS
PALM SPRINGS   CLEAR     54  43  66 VRB5      29.96S
THOUSAND PALMS   N/A     51  41  70 NW1       29.92F
PALM DESERT      N/A    N/A N/A N/A CALM      31.73S
THERMAL        CLEAR     45  39  79 CALM      29.93S
BLYTHE         CLEAR     45  32  60 CALM      29.97R
IMPERIAL AP    CLEAR     49  33  54 CALM      29.94S
EL CENTRO NAS  PTCLDY    49  29  46 CALM      29.97R
MEXICALI       CLEAR     50  32  50 SE7       29.96

$$

UPPER DESERT

CITY           SKY/WX    TMP DP  RH WIND       PRES   REMARKS
VICTORVILLE AP CLEAR     46  34  61 CALM      29.97S
HESPERIA         N/A     52  37  56 CALM      30.05F
APPLE VALLEY     N/A     55  36  48 N5        29.96F
PALMDALE       CLEAR     56  36  47 SW13      29.98R
LANCASTER      PTCLDY    50  39  66 W12       29.98S
EDWARDS AFB    MOCLDY    52  41  66 W12       29.96R
DAGGETT        CLEAR     45  36  70 W8        29.95F
29 PALMS N     CLEAR     45  35  68 CALM      30.03S
NEEDLES        CLEAR     53  33  46 W8        29.97R

$$

REGIONAL REPORTS

CITY           SKY/WX    TMP DP  RH WIND       PRES   REMARKS
SANTA BARBARA  CLOUDY    54  51  90 CALM      29.98S
SANDBERG       PTCLDY    47  37  68 NW5       30.02F
LAS VEGAS NV   PTCLDY    50  37  61 W6        29.92S
PHOENIX AZ     PTCLDY    50  30  46 E6        30.01S
TIJUANA        CLOUDY    54  52  94 NE6       30.05
ENSENADA NW      N/A     58  32  37 N3        29.98S

$$

OFFSHORE ISLANDS

CITY           SKY/WX    TMP DP  RH WIND       PRES   REMARKS
CATALINA ARPT  FOG       52  52 100 W12       30.02S VSB 1/4
SAN NICOLAS IS PTCLDY    55  32  41 NW14      30.02S

$$

MARINE AND OFFSHORE BUOY REPORTS

STATION/POSITION SKY/WX   TEMP    WIND        PRES    VSBY  SWELL
                          AIR SEA DIR/SP/G                  HT/PER/DIR
                          (F)     (DEG/KT/KT) (MB)    (MI)  (FT/S/D)
TANNER BANKS               59 60              1017.0R
S CLEMENTE BASIN           60 62  310/ 12/ 16 1016.6F        13/280/16
SAN NICOLAS IS.               59                N/A          13/280/17
SO. S. ROSA ISLA           56 58  320/ 23/ 27 1016.1R        13/300/14
W. S. BARBARA CH           57 58  330/ 19/ 25 1016.6R        13/280/16
M. S. BARBARA CH           60 61  300/ 16/ 19 1016.2          8/270/16
S. MONICA BASIN               61  340/  6/ 10 1015.6S         7/260/16
S PEDRO CHANNEL               61                N/A           7/270/17
CMP PENDLETON NS              61                N/A           3/240/12
OCEANSIDE OFFSHR              62                N/A           3/250/12
TORREY PINES OTR              62                N/A           8/280/17
SAN DIEGO BAY                 64              1017.1F
POINT LOMA SOUTH              62                N/A           8/280/17

$$





USA.gov is the U.S. government's official web portal to all federal, state and local government web resources and services.